CAPE
13 10 7 6 4 3 1 0 0 0 1 1 1 2 0 0 0 0 0 0 0 0 0 0 0 0 0 0 0 0 0 0 0 0 0 0 0 0 0 0 0 0 0 0 0
6 8 4 6 7 7 7 7 3 2 1 0 2 1 0 0 0 0 0 0 0 0 0 0 0 0 0 0 0 0 0 0 0 0 0 0 0 0 0 0 0 0 0 0 9
3 7 1 8 8 4 2 2 2 3 7 2 0 2 0 0 0 0 0 0 0 0 0 0 0 0 0 0 0 0 0 0 0 0 0 0 0 0 0 0 0 0 0 0 3
8 2 8 3 1 2 3 5 2 3 2 5 4 1 0 0 0 0 0 0 0 0 0 0 0 0 0 0 0 0 0 0 0 0 0 0 0 0 0 0 0 0 0 0 0
9 9 3 4 3 2 2 3 6 1 1 2 3 2 0 0 0 0 0 0 0 0 0 0 0 0 0 0 0 0 0 0 0 0 0 0 0 0 0 0 0 0 0 0 0
2 2 3 8 5 3 2 0 0 0 2 3 4 4 0 0 0 0 0 0 0 0 0 0 0 0 0 0 0 0 0 0 0 0 0 0 0 0 0 0 0 0 0 0 0
2 5 11 9 8 5 2 1 0 0 0 4 5 8 1 0 0 0 0 0 0 0 0 0 0 0 0 0 0 0 0 0 0 0 0 0 0 0 0 0 0 0 0 0 0
3 3 7 6 6 4 3 1 0 0 0 1 4 6 0 0 0 0 0 0 0 0 0 0 0 0 0 0 0 0 0 0 0 0 0 0 0 0 0 0 0 0 0 0 0
2 0 0 3 3 3 0 0 0 0 0 1 2 1 0 0 0 0 0 0 0 0 0 0 0 0 0 0 0 0 0 0 0 0 0 0 0 0 0 0 0 0 0 0 0
15 4 1 0 6 0 0 0 0 0 0 0 0 0 0 0 0 0 0 0 0 0 0 0 0 0 0 0 0 0 0 0 0 0 0 0 0 0 0 0 0 0 0 0 0
7 3 2 0 1 0 0 0 0 0 0 0 0 0 0 0 0 0 0 0 0 0 0 0 0 0 0 0 0 0 0 0 0 0 0 0 0 0 0 0 0 0 0 0 0
2 3 5 2 0 0 0 0 0 1 0 0 0 0 0 0 0 0 0 0 0 0 0 0 0 0 0 0 0 0 0 0 0 0 0 0 0 0 0 0 0 0 0 0 0
0 0 0 1 0 0 0 0 1 11 3 0 0 0 0 0 0 0 0 0 0 0 0 0 0 0 0 0 0 0 0 0 0 0 0 0 0 0 0 0 0 0 0 0 0
0 0 0 0 0 1 1 0 3 12 1 0 0 0 0 0 0 0 0 0 0 0 0 0 0 0 0 0 0 0 0 0 0 0 0 0 0 0 0 0 0 0 0 0 0
1 3 3 0 2 1 2 8 9 13 0 0 49 2 1 1 1 8 0 0 0 0 0 0 0 0 0 0 0 0 0 0 0 0 0 0 0 0 0 0 0 0 0 0 0
0 2 4 1 5 3 8 2 11 4 0 1 38 12 15 24 20 0 2 0 0 0 0 0 0 0 0 0 0 0 0 0 0 0 0 0 0 0 0 0 0 0 0 0 0
0 0 0 0 8 7 15 17 9 3 0 26 41 29 24 42 2 2 0 36 0 0 0 0 0 0 0 0 0 0 0 0 0 0 0 0 0 0 0 0 0 0 0 0 0
0 0 1 11 8 13 14 17 3 12 28 28 4 2 9 31 15 0 0 2 44 0 0 0 0 0 0 0 0 0 0 0 0 0 0 0 0 0 0 0 0 0 0 0 0
0 1 55 47 0 3 23 3 10 7 10 6 0 1 2 26 2 1 0 0 4 6 5 10 0 0 0 0 0 0 0 0 0 0 0 0 0 0 0 0 0 0 0 0 1
0 0 11 81 32 30 15 0 7 10 7 9 8 20 26 37 3 12 1 1 0 0 5 0 0 0 0 0 0 0 0 0 0 0 0 0 0 0 0 0 0 0 0 0 11
0 9 1 44 0 2 9 15 7 9 13 9 12 16 18 18 22 26 10 1 0 0 0 0 0 9 0 0 0 0 0 0 0 0 0 0 0 0 0 0 0 0 0 27 13
0 3 0 37 28 0 11 5 0 14 8 34 12 7 12 12 27 36 29 18 1 0 3 1 17 1 0 0 0 0 0 0 0 0 0 0 0 0 0 0 0 0 5 56 15
0 0 0 10 9 4 0 0 14 10 5 6 13 9 15 11 6 10 31 6 3 0 3 1 0 0 8 0 0 0 0 0 0 0 0 0 0 0 0 0 0 50 14 16 14
0 2 6 11 6 1 1 0 0 7 3 7 3 18 28 27 20 4 15 9 18 6 0 5 0 0 20 0 0 0 0 0 0 0 0 0 0 0 0 0 0 17 3 3 14
3 5 5 4 8 1 5 0 1 6 5 7 15 28 10 9 12 8 24 23 6 7 1 17 0 0 0 0 0 0 0 0 0 0 0 0 0 0 0 0 0 0 5 18 55
4 6 3 3 2 5 1 3 11 11 7 0 9 6 4 2 14 13 15 25 7 1 5 12 12 0 0 0 0 0 0 0 0 0 0 0 0 0 0 0 0 0 2 26 86
1 15 8 1 7 4 6 5 4 5 1 6 17 7 5 20 11 6 5 3 12 6 1 11 17 2 0 0 0 0 0 0 0 0 0 0 0 0 0 0 0 0 0 7 109
CIN
0 0 -3 -1 -1 0 0 0 0 0 0 0 0 0 0 0 0 0 0 0 0 0 0 0 0 0 0 0 0 0 0 0 0 0 0 0 0 0 0 0 0 0 0 0 0
0 -1 -1 -1 0 -1 0 0 0 0 0 0 0 0 0 0 0 0 0 0 0 0 0 0 0 0 0 0 0 0 0 0 0 0 0 -7 0 0 0 0 0 0 0 0 -43
0 0 -1 0 0 0 0 -1 -1 -1 -1 0 0 0 0 0 0 0 0 0 0 0 0 0 0 0 0 0 0 0 0 0 0 0 0 0 0 0 0 0 0 0 0 0 -76
-1 0 0 0 0 -1 -2 0 -1 0 0 0 0 0 0 0 0 0 0 0 0 0 0 0 0 0 0 0 0 0 0 0 0 0 0 0 0 0 0 0 0 0 0 0 0
0 0 0 -1 -1 0 0 0 0 0 0 0 0 -1 0 0 0 0 0 0 0 0 0 0 0 0 0 0 0 0 0 0 0 0 0 0 0 0 0 0 0 0 0 0 0
-2 0 0 0 0 -1 0 0 0 0 0 0 -2 -2 0 0 0 0 0 0 0 0 0 0 0 0 0 0 0 0 0 0 0 0 0 0 0 0 0 0 0 0 0 0 0
0 -1 0 0 0 -1 -1 0 0 0 0 0 0 0 0 0 0 0 0 0 0 0 0 0 0 0 0 0 0 0 0 0 0 0 0 0 0 0 0 0 0 0 0 0 0
-1 -1 0 0 0 0 0 0 0 0 0 0 0 -1 0 0 0 0 0 0 0 0 0 0 0 0 0 0 0 0 0 0 0 0 0 0 0 0 0 0 0 0 0 0 0
-1 0 0 0 0 0 0 0 0 0 0 0 -1 -1 0 0 0 0 0 0 0 0 0 0 0 0 0 0 0 0 0 0 0 0 0 0 0 0 0 0 0 0 0 0 0
-1 -1 -2 0 0 0 0 0 0 0 0 0 0 0 0 0 0 0 0 0 0 0 0 0 0 0 0 0 0 0 0 0 0 0 0 0 0 0 0 0 0 0 0 0 0
0 0 0 0 0 0 0 0 0 0 0 0 0 0 0 0 0 0 0 0 0 0 0 0 0 0 0 0 0 0 0 0 0 0 0 0 0 0 0 0 0 0 0 0 0
0 0 0 0 0 0 0 0 -1 0 0 0 0 0 0 0 0 0 0 0 0 0 0 0 0 0 0 0 0 0 0 0 0 0 0 0 0 0 0 0 0 0 0 0 0
0 0 0 0 0 -1 0 0 0 -1 0 0 0 0 0 0 0 0 0 0 0 0 0 0 0 0 0 0 0 0 0 0 0 0 0 0 0 0 0 0 0 0 0 0 0
0 0 -1 0 -1 -1 -2 0 -1 -1 0 0 0 0 0 0 0 0 0 0 0 0 0 0 0 0 0 0 0 0 0 0 0 0 0 0 0 0 0 0 0 0 0 0 0
-1 0 0 0 -2 -1 -1 0 -1 -1 0 0 -5 -1 -4 -1 -2 -3 0 0 0 0 0 0 0 0 0 0 0 0 0 0 0 0 0 0 0 0 0 0 0 0 0 0 0
0 0 0 -1 -1 -1 0 -1 -1 -1 -1 -1 -6 -3 -4 -5 -4 -1 -2 0 0 0 0 0 0 0 0 0 0 0 0 0 0 0 0 0 0 0 0 0 0 0 0 0 0
0 0 0 -1 0 0 -1 -1 -1 -3 -1 -4 -3 -6 -5 -4 -4 -3 0 -4 0 0 0 0 0 0 0 0 0 0 0 0 0 0 0 0 0 0 0 0 0 0 0 0 0
0 0 -1 0 -1 0 -1 -1 -2 -6 -2 -5 -6 -30 -5 -7 -3 0 0 -1 -4 0 0 -1 0 0 0 0 0 0 0 0 0 0 0 0 0 0 0 0 0 0 0 0 0
0 -2 -44 -48 0 -1 0 -2 -5 -3 -4 -1 0 -1 -2 -4 -4 -1 0 0 0 -3 -10 -11 0 0 0 0 0 0 0 0 0 0 0 -1 0 0 0 0 0 0 0 0 -27
0 -1 -84 -8 -21 -11 -1 0 -1 -3 -3 -4 -4 -3 -5 -6 -4 -9 -2 -1 0 -14 -15 -1 -2 -2 0 0 0 0 0 0 0 0 0 0 0 0 0 0 0 0 0 0 -245
0 -2 -2 -14 -4 -1 0 -2 -2 -1 -2 -2 -2 -3 -5 -4 -4 -4 -5 -10 0 -1 0 -1 -2 -6 0 0 0 0 0 0 0 0 0 0 0 0 0 0 0 0 0 -124 -276
0 -1 0 -18 -12 0 -1 -1 0 -1 -2 -1 -2 -3 -2 -3 -2 -3 -4 -6 -4 0 0 -1 -2 -6 -1 0 0 0 0 0 0 0 0 0 0 0 0 0 0 0 -28 -194 -264
0 0 0 -1 -34 0 -1 -2 -1 -3 -2 -2 -1 -3 -3 -2 -3 -2 -2 -10 -4 -1 0 -1 0 -5 -5 -1 0 0 0 0 0 0 0 0 0 0 0 0 0 -97 -164 -244 -274
-1 -1 -1 0 -1 -1 -1 0 -1 -2 -1 -1 -2 -3 -2 -3 -3 -2 -1 -10 -9 -2 0 0 0 0 -4 0 0 0 0 0 0 0 0 0 0 0 0 0 0 -108 -216 -148 -268
-1 0 0 -1 -1 -2 -1 -1 -2 -1 -1 -3 -8 -3 -2 -1 -3 -3 -2 -5 -3 -6 -1 -1 -1 0 0 0 0 0 0 0 0 0 0 0 0 0 0 0 0 0 -184 -220 -198
0 0 -1 -1 -1 -1 -1 -1 0 -1 0 0 -1 -1 -1 -1 -2 -1 -2 -2 -1 0 0 -1 0 0 0 0 0 0 0 0 0 0 0 0 0 0 0 0 0 0 -53 -154 -153
-3 -3 0 0 -1 -1 -1 -1 -1 -1 -2 -3 -1 -1 0 -3 -24 -1 -1 -1 -1 -1 0 0 -1 -4 0 0 -4 0 0 0 0 0 0 0 0 0 0 0 0 0 0 -91 -130
Wind_Speed
29 30 30 31 32 32 33 33 34 35 35 37 37 37 38 39 41 36 35 28 23 18 19 16 16 17 14 17 16 16 28 31 24 25 21 16 16 15 17 20 22 20 21 22 22
30 31 31 32 33 33 34 34 34 35 35 36 37 38 38 40 42 42 36 34 28 27 24 19 20 20 21 20 19 21 29 30 23 26 24 24 22 24 24 22 23 22 19 19 21
32 32 32 33 33 34 35 35 35 35 35 35 37 37 37 38 40 40 27 28 32 32 32 28 26 22 26 24 23 25 35 28 30 27 27 31 31 32 29 28 26 32 31 28 29
32 32 33 34 34 34 34 34 35 36 36 36 35 36 35 31 38 23 24 28 31 29 27 30 29 28 31 33 30 40 34 37 40 33 32 36 39 39 31 34 35 39 35 40 40
33 33 34 35 35 36 36 36 36 35 36 36 35 34 33 34 37 23 28 27 27 24 30 31 33 35 41 39 36 41 42 43 41 42 40 39 42 41 44 38 39 42 41 39 39
33 34 35 36 36 37 38 38 38 38 37 35 33 32 34 43 30 32 35 36 32 29 28 30 32 35 39 40 42 42 42 44 44 38 38 40 42 41 40 40 44 40 40 40 42
34 35 35 36 37 38 38 39 40 41 40 36 32 29 37 42 34 33 36 37 33 32 29 27 29 29 34 42 43 45 46 46 40 40 39 38 45 33 40 41 41 42 41 44 44
35 35 36 36 37 38 39 40 41 42 42 36 29 29 40 30 34 37 38 37 34 35 33 29 26 34 36 37 38 38 41 49 36 31 30 29 40 38 39 39 40 39 44 47 41
36 36 37 37 38 38 40 41 41 34 30 25 24 28 44 25 31 32 32 37 34 30 32 29 29 31 31 38 43 36 42 39 38 31 34 30 43 38 34 35 37 44 46 43 35
37 37 37 38 39 40 43 41 31 25 23 20 26 31 32 34 27 24 28 27 31 29 29 32 30 32 34 34 44 32 35 42 47 30 28 37 44 40 37 42 45 46 46 39 40
39 39 38 38 39 41 38 32 30 30 26 34 34 36 41 37 30 31 24 25 28 32 37 30 35 40 40 36 35 41 41 42 37 31 39 46 46 45 41 43 46 47 43 46 36
40 40 38 37 38 37 30 33 30 32 44 38 41 44 43 41 42 39 30 32 30 41 35 35 45 49 30 34 34 39 41 40 40 37 42 45 53 53 46 48 48 43 43 41 35
40 39 39 37 37 27 32 29 24 30 39 42 35 35 33 29 40 41 35 36 40 40 42 47 45 31 34 34 36 34 36 35 37 43 43 47 56 57 50 46 41 30 40 38 34
40 39 37 36 29 29 30 22 23 26 41 37 25 22 22 24 32 29 30 36 39 46 41 48 45 36 39 39 34 35 29 37 43 40 43 40 61 51 44 43 38 44 41 33 25
40 39 36 30 29 27 25 21 22 21 45 24 21 16 20 25 29 20 19 32 48 41 36 47 45 46 41 42 33 36 31 36 35 34 41 40 42 53 41 46 43 37 38 23 18
42 39 34 24 22 22 22 20 18 27 38 23 18 22 25 23 24 25 29 26 35 46 43 47 32 39 47 34 33 31 29 30 30 30 31 26 28 42 47 46 43 39 32 13 9
34 31 24 22 26 23 19 16 23 27 21 22 24 28 29 28 28 28 29 33 38 47 54 45 51 36 36 38 30 29 24 25 27 24 25 25 30 43 33 19 27 24 20 8 6
24 23 24 24 21 20 16 15 22 20 22 29 30 34 32 26 26 27 30 33 32 41 47 49 52 49 36 42 32 31 26 27 27 26 27 18 31 17 28 37 37 38 23 7 5
22 21 25 27 20 15 17 18 22 23 23 28 32 31 30 23 26 27 25 27 24 35 47 47 54 35 40 37 37 32 34 24 32 24 28 11 28 36 38 36 29 20 7 11 6
24 19 28 25 18 12 16 21 21 23 27 28 30 27 29 25 27 24 23 18 26 25 28 31 43 40 42 37 38 33 27 30 32 20 18 34 33 29 17 21 23 31 8 7 1
22 21 24 21 22 13 19 17 9 4 10 24 26 28 30 29 28 27 21 16 18 27 32 34 35 40 35 46 40 36 34 34 28 25 41 36 29 23 30 22 21 6 4 6 7
21 23 20 15 20 21 10 6 3 4 4 10 20 23 24 27 28 25 23 21 18 22 31 31 34 39 47 39 43 38 38 33 32 18 36 32 24 18 22 16 15 2 0 3 8
22 18 18 15 16 13 7 6 8 4 17 5 13 19 23 24 22 23 23 16 19 19 23 32 39 38 39 44 41 45 41 36 33 30 42 35 23 21 13 9 8 6 1 6 12
19 22 18 17 16 13 9 10 7 6 4 3 9 12 21 23 24 24 24 21 20 22 22 28 42 43 36 41 35 46 47 40 45 39 29 32 28 21 12 5 7 7 2 6 13
21 20 19 19 16 11 9 9 5 20 6 5 7 15 25 23 26 27 24 25 22 20 20 25 43 49 41 33 33 38 48 49 47 47 44 28 33 32 19 7 9 11 4 4 10
21 21 16 11 13 12 13 12 8 1 3 5 18 23 23 24 27 30 28 27 23 19 20 23 31 47 48 39 34 35 38 47 49 44 42 37 33 33 35 30 24 17 19 8 7
19 16 16 17 14 13 13 10 4 2 4 6 15 18 22 24 26 29 32 31 28 24 20 22 27 38 56 41 33 40 39 40 42 41 38 42 36 30 30 26 24 21 23 29 10
Wind_Direction
315 312 309 304 303 302 301 298 296 294 294 288 286 286 287 285 282 279 273 273 280 276 282 281 274 276 272 274 278 283 279 279 284 294 305 311 309 319 320 318 320 321 322 328 338
314 312 311 309 306 303 300 299 299 298 295 291 288 287 286 285 278 274 271 270 270 270 274 270 271 267 264 272 274 270 274 276 284 290 295 304 302 310 309 311 314 319 321 326 331
316 314 312 310 307 304 302 300 298 298 297 294 289 288 289 288 281 274 275 275 270 267 264 266 269 265 266 267 262 269 270 279 281 286 293 294 295 297 304 302 308 312 315 318 318
320 318 316 314 311 308 306 304 300 297 296 294 293 291 290 285 274 280 276 279 279 267 257 256 259 259 266 265 267 268 273 275 279 282 284 286 291 292 298 300 302 303 311 308 307
321 319 317 314 312 310 308 306 303 302 299 295 293 293 290 276 269 286 282 284 285 273 254 246 254 259 261 267 268 266 273 277 277 279 280 283 286 289 291 300 299 299 304 307 308
324 321 318 315 313 310 307 305 303 301 299 298 296 294 285 274 284 281 278 276 276 273 266 252 260 260 267 265 265 273 274 274 275 276 281 283 284 288 291 296 295 302 305 308 308
330 327 324 322 318 313 310 306 303 298 297 297 296 293 283 275 283 282 280 273 271 270 268 265 254 265 265 269 271 270 272 274 274 276 278 285 280 278 291 293 296 301 305 308 310
332 330 328 326 323 319 314 310 305 301 297 297 294 290 282 289 285 280 276 271 269 265 267 268 267 264 263 270 275 269 268 269 269 274 274 280 276 287 291 294 296 302 307 310 314
333 331 329 327 325 322 318 313 308 308 306 303 296 288 285 296 286 281 275 268 267 266 261 265 264 262 261 261 266 259 263 263 273 272 278 270 281 288 291 293 298 303 308 315 320
334 331 329 327 326 324 319 315 316 315 315 309 299 289 287 284 292 288 286 273 263 258 257 252 255 256 254 246 248 253 263 269 273 275 277 277 279 284 287 289 294 301 306 317 307
335 332 330 329 327 325 324 322 314 305 305 293 292 284 285 291 291 284 282 278 261 252 244 241 242 242 228 232 256 265 266 271 274 277 277 278 279 280 286 289 293 299 306 281 263
340 338 335 333 330 330 328 318 315 311 297 296 289 284 283 283 279 275 279 268 258 248 241 243 241 222 236 251 254 260 264 266 276 276 277 277 274 272 282 286 291 297 294 280 272
344 341 338 336 334 335 329 323 332 325 300 301 295 289 289 284 277 273 266 261 258 254 240 236 232 244 242 247 251 251 255 265 270 277 276 277 276 272 280 285 290 296 271 257 270
346 344 342 339 336 336 326 338 334 334 300 298 299 301 302 295 284 280 272 255 256 253 248 246 247 248 245 245 235 248 254 269 273 275 273 276 276 276 281 282 285 276 267 269 287
348 344 342 343 335 332 337 342 337 332 290 307 306 330 309 293 299 298 278 259 250 250 248 243 246 241 244 224 243 228 264 268 274 275 278 274 279 265 281 277 270 274 260 277 292
349 347 347 354 351 343 340 340 338 305 288 306 313 307 301 298 296 299 292 268 259 250 251 247 253 245 241 250 245 257 263 267 270 275 266 268 270 237 262 266 260 259 258 271 300
2 2 11 8 350 354 354 348 313 295 321 305 304 302 297 295 295 292 288 269 253 239 242 245 244 251 247 237 238 231 234 257 265 259 247 280 276 236 265 274 268 271 265 277 309
10 23 16 8 6 12 15 348 314 319 310 305 300 295 287 300 293 292 283 277 256 243 241 240 240 236 238 232 228 217 220 246 260 270 283 268 268 263 261 256 240 242 265 285 301
20 32 28 18 25 73 34 349 329 326 319 305 296 288 285 291 292 288 286 276 274 242 240 239 239 234 238 233 219 227 224 230 263 276 284 238 257 257 249 256 260 271 230 260 278
31 40 26 19 29 132 59 352 342 327 305 299 293 292 286 292 289 289 284 288 269 261 251 240 237 234 222 227 228 230 227 235 248 244 262 245 247 248 265 272 261 223 245 164 221
43 47 46 68 44 104 344 301 248 166 252 305 291 286 280 282 281 281 283 291 286 264 247 242 238 231 220 222 220 223 228 236 245 258 219 234 255 263 245 271 253 268 135 143 133
47 51 59 74 53 44 100 218 147 183 96 240 267 300 288 273 273 273 274 275 275 277 240 236 234 235 222 225 228 226 233 226 240 217 232 239 254 265 264 285 259 245 7 122 126
45 56 64 72 70 76 100 117 96 228 291 237 241 272 273 272 280 263 261 275 273 281 246 232 228 226 222 220 225 224 229 227 237 238 231 237 254 256 276 294 274 287 217 122 122
47 46 58 68 74 69 62 69 76 85 134 188 221 248 292 277 267 260 257 259 264 268 256 238 224 223 217 218 225 224 225 226 227 230 235 239 239 242 256 293 295 290 253 133 124
47 48 49 47 55 54 62 70 69 17 91 204 122 271 304 285 275 260 259 257 262 269 258 241 223 222 228 230 232 231 224 225 227 228 230 245 238 231 249 284 286 281 264 154 128
43 41 46 33 47 46 61 64 60 234 104 119 262 283 278 267 267 260 264 254 252 259 260 243 226 222 223 227 232 231 230 226 227 231 235 241 244 244 245 257 261 266 250 236 147
46 47 43 37 43 47 54 61 57 304 140 138 262 268 269 277 278 266 259 254 256 253 259 243 232 220 217 223 232 231 230 231 232 236 237 234 243 254 248 252 251 255 252 233 159